AXM6020 WMKK-WMKA

Flight info

Callsign AXM6020
Flight time 0h 39m
Altitude 28000
Route ATIMU1F ATIMU Y506 VPG JERAI1E
Aircraft A320/M-SDE3FGHIRWY/LB1

Departure

Time 2026-05-05 13:54
Airport Kuala Lumpur International Airport (WMKK)

Arrival

Time 2026-05-05 14:34
Airport Sultan Abdul Halim Airport (WMKA)
Time Latitude Longitude Altitude Speed Heading
2026-05-05 13:35 2.74415 101.69048 42 ft 0 kts 326°
2026-05-05 13:42 2.74397 101.69064 42 ft 4 kts 297°
2026-05-05 13:43 2.74391 101.69088 42 ft 4 kts 262°
2026-05-05 13:43 2.74398 101.69112 42 ft 2 kts 236°
2026-05-05 13:43 2.74399 101.69114 42 ft 0 kts 236°
2026-05-05 13:46 2.74383 101.69089 42 ft 12 kts 236°
2026-05-05 13:46 2.74310 101.69030 42 ft 12 kts 204°
2026-05-05 13:47 2.74252 101.68967 41 ft 16 kts 237°
2026-05-05 13:47 2.74177 101.68857 42 ft 20 kts 236°
2026-05-05 13:47 2.74099 101.68742 40 ft 21 kts 236°
2026-05-05 13:47 2.74020 101.68625 41 ft 15 kts 236°
2026-05-05 13:48 2.73966 101.68546 40 ft 14 kts 237°
2026-05-05 13:48 2.73907 101.68455 42 ft 18 kts 236°
2026-05-05 13:48 2.73833 101.68344 39 ft 20 kts 236°
2026-05-05 13:48 2.73754 101.68229 41 ft 17 kts 237°
2026-05-05 13:49 2.73698 101.68173 40 ft 11 kts 180°
2026-05-05 13:49 2.73607 101.68229 40 ft 21 kts 146°
2026-05-05 13:49 2.73466 101.68324 38 ft 26 kts 147°
2026-05-05 13:49 2.73314 101.68427 40 ft 27 kts 146°
2026-05-05 13:50 2.73154 101.68534 40 ft 28 kts 146°
2026-05-05 13:50 2.72988 101.68647 40 ft 30 kts 146°
2026-05-05 13:50 2.72816 101.68761 40 ft 30 kts 146°
2026-05-05 13:50 2.72638 101.68882 40 ft 31 kts 145°
2026-05-05 13:51 2.72455 101.69005 39 ft 31 kts 146°
2026-05-05 13:51 2.72291 101.69115 38 ft 28 kts 146°
2026-05-05 13:51 2.72125 101.69227 38 ft 29 kts 146°
2026-05-05 13:51 2.71971 101.69330 38 ft 22 kts 146°
2026-05-05 13:52 2.71879 101.69393 39 ft 12 kts 147°
2026-05-05 13:52 2.71806 101.69371 40 ft 16 kts 238°
2026-05-05 13:52 2.71748 101.69270 39 ft 17 kts 261°
2026-05-05 13:52 2.71791 101.69158 38 ft 19 kts 291°
2026-05-05 13:53 2.71834 101.69084 39 ft 10 kts 328°
2026-05-05 13:53 2.71922 101.69026 39 ft 28 kts 327°
2026-05-05 13:53 2.72303 101.68769 38 ft 102 kts 326°
2026-05-05 13:53 2.73054 101.68263 39 ft 156 kts 326°
2026-05-05 13:54 2.74021 101.67629 520 ft 166 kts 327°
2026-05-05 13:54 2.74978 101.66999 1261 ft 165 kts 327°
2026-05-05 13:54 2.75935 101.66287 1725 ft 185 kts 312°
2026-05-05 13:54 2.76401 101.65038 1993 ft 208 kts 274°
2026-05-05 13:55 2.76427 101.63499 2328 ft 234 kts 269°
2026-05-05 13:55 2.76395 101.61794 2759 ft 258 kts 269°
2026-05-05 13:55 2.76356 101.59945 3422 ft 270 kts 269°
2026-05-05 13:55 2.76332 101.58048 4295 ft 275 kts 270°
2026-05-05 13:56 2.76514 101.56136 5187 ft 279 kts 287°
2026-05-05 13:56 2.77399 101.54448 6040 ft 281 kts 311°
2026-05-05 13:56 2.78914 101.53227 6930 ft 282 kts 329°
2026-05-05 13:56 2.80589 101.52186 7778 ft 285 kts 329°
2026-05-05 13:57 2.82288 101.51133 8588 ft 290 kts 328°
2026-05-05 13:57 2.84014 101.50063 9362 ft 294 kts 328°
2026-05-05 13:57 2.85763 101.48976 10128 ft 298 kts 328°
2026-05-05 13:57 2.87586 101.47840 10442 ft 320 kts 328°
2026-05-05 13:58 2.89542 101.46621 10711 ft 340 kts 329°
2026-05-05 13:58 2.91579 101.45352 11302 ft 348 kts 329°
2026-05-05 13:58 2.93618 101.44079 11969 ft 353 kts 329°
2026-05-05 13:58 2.95714 101.42770 12651 ft 357 kts 329°
2026-05-05 13:59 2.99986 101.40102 13948 ft 366 kts 329°
2026-05-05 13:59 3.02156 101.38745 14577 ft 370 kts 329°
2026-05-05 14:00 3.06560 101.35989 15786 ft 377 kts 329°
2026-05-05 14:00 3.08800 101.34592 16382 ft 381 kts 329°
2026-05-05 14:00 3.11031 101.33196 16941 ft 385 kts 329°
2026-05-05 14:00 3.13310 101.31774 17493 ft 388 kts 329°
2026-05-05 14:01 3.15614 101.30338 18022 ft 392 kts 329°
2026-05-05 14:01 3.17939 101.28887 18551 ft 396 kts 329°
2026-05-05 14:01 3.20284 101.27423 19066 ft 399 kts 329°
2026-05-05 14:01 3.22647 101.25945 19569 ft 402 kts 329°
2026-05-05 14:02 3.25029 101.24454 20068 ft 405 kts 329°
2026-05-05 14:02 3.27430 101.22953 20551 ft 408 kts 329°
2026-05-05 14:02 3.29816 101.21462 20997 ft 412 kts 329°
2026-05-05 14:02 3.32255 101.19937 21431 ft 415 kts 329°
2026-05-05 14:03 3.34708 101.18405 21875 ft 418 kts 329°
2026-05-05 14:03 3.37184 101.16860 22303 ft 421 kts 329°
2026-05-05 14:03 3.39674 101.15306 22720 ft 423 kts 329°
2026-05-05 14:03 3.42181 101.13740 23115 ft 426 kts 329°
2026-05-05 14:04 3.44706 101.12165 23506 ft 429 kts 329°
2026-05-05 14:04 3.47246 101.10577 23896 ft 432 kts 329°
2026-05-05 14:04 3.49799 101.08978 24263 ft 434 kts 329°
2026-05-05 14:04 3.52330 101.07391 24613 ft 437 kts 329°
2026-05-05 14:05 3.54911 101.05774 24972 ft 439 kts 329°
2026-05-05 14:05 3.57509 101.04148 25334 ft 442 kts 329°
2026-05-05 14:05 3.60122 101.02515 25693 ft 444 kts 329°
2026-05-05 14:05 3.62745 101.00873 26046 ft 446 kts 329°
2026-05-05 14:06 3.65383 100.99224 26388 ft 448 kts 329°
2026-05-05 14:06 3.68102 100.97694 26721 ft 449 kts 336°
2026-05-05 14:06 3.70962 100.96417 27033 ft 451 kts 337°
2026-05-05 14:06 3.73800 100.95160 27333 ft 453 kts 337°
2026-05-05 14:07 3.76688 100.93883 27633 ft 455 kts 337°
2026-05-05 14:07 3.79589 100.92598 27811 ft 456 kts 337°
2026-05-05 14:07 3.82445 100.91330 27842 ft 443 kts 337°
2026-05-05 14:07 3.85239 100.90085 27841 ft 437 kts 336°
2026-05-05 14:08 3.88012 100.88848 27841 ft 435 kts 336°
2026-05-05 14:08 3.90769 100.87617 27841 ft 434 kts 336°
2026-05-05 14:08 3.93530 100.86386 27841 ft 434 kts 337°
2026-05-05 14:08 3.96254 100.85173 27841 ft 434 kts 336°
2026-05-05 14:09 3.99016 100.83944 27841 ft 434 kts 337°
2026-05-05 14:09 4.01778 100.82717 27841 ft 434 kts 336°
2026-05-05 14:09 4.04539 100.81489 27841 ft 434 kts 336°
2026-05-05 14:09 4.07298 100.80260 27839 ft 434 kts 336°
2026-05-05 14:10 4.10057 100.79029 27839 ft 434 kts 336°
2026-05-05 14:10 4.12815 100.77798 27838 ft 434 kts 336°
2026-05-05 14:10 4.15573 100.76567 27837 ft 434 kts 336°
2026-05-05 14:10 4.18288 100.75354 27836 ft 434 kts 336°
2026-05-05 14:11 4.21047 100.74119 27833 ft 434 kts 336°
2026-05-05 14:11 4.23803 100.72881 27833 ft 434 kts 336°
2026-05-05 14:11 4.26558 100.71643 27833 ft 434 kts 336°
2026-05-05 14:11 4.29312 100.70405 27833 ft 434 kts 336°
2026-05-05 14:12 4.32068 100.69167 27833 ft 434 kts 336°
2026-05-05 14:12 4.34825 100.67930 27835 ft 434 kts 336°
2026-05-05 14:12 4.37577 100.66697 27836 ft 434 kts 336°
2026-05-05 14:12 4.40298 100.65479 27835 ft 434 kts 336°
2026-05-05 14:13 4.43055 100.64244 27835 ft 434 kts 336°
2026-05-05 14:13 4.45817 100.63020 27836 ft 434 kts 337°
2026-05-05 14:13 4.48590 100.61822 27836 ft 434 kts 337°
2026-05-05 14:13 4.51371 100.60638 27837 ft 434 kts 338°
2026-05-05 14:14 4.54154 100.59462 27837 ft 434 kts 338°
2026-05-05 14:14 4.56939 100.58287 27838 ft 434 kts 338°
2026-05-05 14:14 4.59721 100.57109 27838 ft 434 kts 338°
2026-05-05 14:14 4.62465 100.55943 27838 ft 434 kts 338°
2026-05-05 14:15 4.65236 100.54759 27838 ft 434 kts 337°
2026-05-05 14:15 4.68013 100.53569 27838 ft 434 kts 337°
2026-05-05 14:15 4.70790 100.52377 27839 ft 434 kts 337°
2026-05-05 14:15 4.73566 100.51186 27839 ft 434 kts 337°
2026-05-05 14:16 4.76344 100.49998 27839 ft 434 kts 338°
2026-05-05 14:16 4.79125 100.48810 27841 ft 437 kts 338°
2026-05-05 14:16 4.81957 100.47603 27281 ft 446 kts 338°
2026-05-05 14:16 4.84807 100.46357 26467 ft 447 kts 336°
2026-05-05 14:17 4.87585 100.45077 25915 ft 442 kts 335°
2026-05-05 14:17 4.90346 100.43766 25392 ft 436 kts 335°
2026-05-05 14:17 4.93064 100.42463 24875 ft 430 kts 335°
2026-05-05 14:17 4.95740 100.41182 24370 ft 425 kts 335°
2026-05-05 14:18 4.98394 100.39921 23863 ft 419 kts 335°
2026-05-05 14:18 5.01013 100.38688 23355 ft 414 kts 336°
2026-05-05 14:18 5.03608 100.37473 22855 ft 409 kts 336°
2026-05-05 14:18 5.06177 100.36275 22351 ft 405 kts 336°
2026-05-05 14:19 5.08724 100.35087 21835 ft 402 kts 336°
2026-05-05 14:19 5.11217 100.33921 21338 ft 399 kts 336°
2026-05-05 14:19 5.13724 100.32746 20829 ft 396 kts 336°
2026-05-05 14:19 5.16215 100.31576 20311 ft 394 kts 336°
2026-05-05 14:20 5.18690 100.30413 19795 ft 392 kts 336°
2026-05-05 14:20 5.21152 100.29260 19284 ft 389 kts 336°
2026-05-05 14:20 5.23600 100.28115 18775 ft 387 kts 336°
2026-05-05 14:20 5.26066 100.27067 18261 ft 383 kts 344°
2026-05-05 14:21 5.28656 100.26534 17784 ft 378 kts 356°
2026-05-05 14:21 5.31265 100.26577 17288 ft 373 kts
2026-05-05 14:21 5.33780 100.26954 16821 ft 371 kts 10°
2026-05-05 14:21 5.36331 100.27337 16342 ft 369 kts 10°
2026-05-05 14:22 5.38861 100.27714 15870 ft 366 kts 10°
2026-05-05 14:22 5.41376 100.28087 15409 ft 364 kts 10°
2026-05-05 14:22 5.43873 100.28459 14943 ft 362 kts 10°
2026-05-05 14:22 5.46376 100.28709 14195 ft 368 kts
2026-05-05 14:23 5.48941 100.28649 13734 ft 365 kts
2026-05-05 14:23 5.51459 100.28579 13299 ft 360 kts
2026-05-05 14:23 5.53961 100.28508 12783 ft 359 kts
2026-05-05 14:23 5.56417 100.28438 12264 ft 357 kts
2026-05-05 14:24 5.58887 100.28368 11702 ft 355 kts
2026-05-05 14:24 5.61339 100.28299 11255 ft 351 kts
2026-05-05 14:24 5.63770 100.28232 10816 ft 346 kts
2026-05-05 14:24 5.66156 100.28167 10387 ft 342 kts
2026-05-05 14:25 5.68511 100.28104 10136 ft 332 kts
2026-05-05 14:25 5.70760 100.28044 10014 ft 314 kts
2026-05-05 14:25 5.72901 100.27986 9822 ft 303 kts
2026-05-05 14:25 5.74963 100.27931 9507 ft 299 kts
2026-05-05 14:26 5.77022 100.27876 8906 ft 295 kts
2026-05-05 14:26 5.79070 100.27822 8216 ft 293 kts 360°
2026-05-05 14:26 5.81088 100.27766 7589 ft 287 kts 360°
2026-05-05 14:26 5.83071 100.27712 7048 ft 284 kts 360°
2026-05-05 14:27 5.85058 100.27660 6553 ft 285 kts 359°
2026-05-05 14:27 5.87035 100.27606 6080 ft 285 kts 359°
2026-05-05 14:27 5.89001 100.27553 5716 ft 279 kts 359°
2026-05-05 14:27 5.90921 100.27506 5033 ft 275 kts 359°
2026-05-05 14:28 5.92797 100.27457 4495 ft 272 kts 359°
2026-05-05 14:28 5.94685 100.27406 3986 ft 271 kts 359°
2026-05-05 14:28 5.96563 100.27357 3497 ft 270 kts 359°
2026-05-05 14:28 5.98439 100.27308 3164 ft 265 kts 358°
2026-05-05 14:29 6.00223 100.27262 3103 ft 249 kts 358°
2026-05-05 14:29 6.01913 100.27216 3030 ft 236 kts 358°
2026-05-05 14:29 6.03517 100.27175 2931 ft 225 kts
2026-05-05 14:29 6.05014 100.27452 2840 ft 222 kts 22°
2026-05-05 14:30 6.06309 100.28245 2745 ft 215 kts 42°
2026-05-05 14:30 6.07393 100.29237 2652 ft 206 kts 43°
2026-05-05 14:30 6.08434 100.30191 2513 ft 201 kts 43°
2026-05-05 14:30 6.09436 100.31109 2314 ft 187 kts 43°
2026-05-05 14:31 6.10367 100.31960 2055 ft 177 kts 43°
2026-05-05 14:31 6.11249 100.32766 1830 ft 166 kts 43°
2026-05-05 14:31 6.12083 100.33528 1622 ft 158 kts 43°
2026-05-05 14:31 6.12875 100.34252 1411 ft 154 kts 43°
2026-05-05 14:32 6.13668 100.34979 1208 ft 154 kts 43°
2026-05-05 14:32 6.14458 100.35704 1005 ft 153 kts 43°
2026-05-05 14:32 6.15245 100.36422 798 ft 152 kts 44°
2026-05-05 14:32 6.16026 100.37137 600 ft 152 kts 43°
2026-05-05 14:33 6.16803 100.37848 385 ft 151 kts 43°
2026-05-05 14:33 6.17575 100.38556 166 ft 149 kts 43°
2026-05-05 14:33 6.18338 100.39256 35 ft 146 kts 43°
2026-05-05 14:33 6.18957 100.39819 28 ft 60 kts 42°
2026-05-05 14:34 6.19195 100.40038 26 ft 43 kts 43°
2026-05-05 14:34 6.19410 100.40236 23 ft 40 kts 42°
2026-05-05 14:34 6.19608 100.40417 24 ft 37 kts 42°
2026-05-05 14:34 6.19784 100.40579 26 ft 30 kts 43°
2026-05-05 14:35 6.19887 100.40667 27 ft 8 kts 14°
2026-05-05 14:35 6.19896 100.40644 26 ft 9 kts 227°
2026-05-05 14:35 6.19795 100.40587 27 ft 26 kts 219°
2026-05-05 14:35 6.19622 100.40428 24 ft 36 kts 222°
2026-05-05 14:36 6.19443 100.40265 23 ft 34 kts 222°
2026-05-05 14:36 6.19274 100.40111 24 ft 31 kts 222°
2026-05-05 14:36 6.19147 100.39993 25 ft 21 kts 223°
2026-05-05 14:36 6.19047 100.39902 26 ft 17 kts 223°
2026-05-05 14:37 6.19045 100.39838 26 ft 8 kts 309°
2026-05-05 14:37 6.19081 100.39799 25 ft 8 kts 312°
2026-05-05 14:37 6.19113 100.39754 24 ft 8 kts 285°
2026-05-05 14:37 6.19093 100.39710 24 ft 4 kts 238°
2026-05-05 14:38 6.19106 100.39689 23 ft 4 kts 313°
2026-05-05 14:38 6.19128 100.39666 26 ft 4 kts 313°
2026-05-05 14:38 6.19137 100.39656 23 ft 0 kts 313°